Location: Skalnate Pleso
(49.1889°N, 20.2450°E)
Time: 05:18:47
(UTC+02:00)

Cosmos 1269 Rocket - Pass Details

Date: 22 February 2020
Orbit: 772 x 780 km, 74.1° (Epoch: 04 April)

Event Time Altitude Azimuth Distance (km) Brightness Sun altitude
Exits shadow 04:18:43 16° 332° (NNW) 1,970 5.9 -23.1°
Drops below altitude 10° 04:20:51 10° 355° (N) 2,332 6.6 -22.8°
Sets 04:24:10 0° 16° (NNE) 3,264 7.6 -22.3°
